User: anonymous
Location: Caltech
(34.1382°N, 118.1253°W)
Time: 14:03:13
(UTC-07:00)
Language:

Cosmos 1508 Rocket - Orbit

View from above orbital plane
View from above orbital plane
View from above satellite
View from above satellite

Ground track
Ground track

The orbit data is extracted from the following two-line orbital elements,

1 14484U 83111B   14244.09747402  .00046266  00000-0  65645-3 0  6151
2 14484 082.8367 255.5507 0200984 002.2999 059.4028 15.36162562584192
Epoch (UTC): 01 September 2014 02:20:21
Eccentricity: 0.0200984
inclination: 82.8367°
perigee height: 320 km
apogee height: 595 km
right ascension of ascending node: 255.5507°
argument of perigee: 2.2999°
revolutions per day: 15.36162562
mean anomaly at epoch: 59.4028°
orbit number at epoch: 58419

The dashed part of the orbit path shows where the satellite is in the earth's shadow,  

DLR